DLH594 DNAA-DNPO

Flight info

Callsign DLH594
Flight time N/A
Altitude 30000
Route IKVAD1Q IKVAD DCT IVBUV UV456 BORMO BORMO1R
Aircraft A339/H-SADE1E2E3GHIJ3J5M1P2RWXY/LB2D1

Departure

Time 2026-05-06 08:35
Airport Nnamdi Azikiwe International Airport (DNAA)

Arrival

Time N/A
Airport Port Harcourt International Airport (DNPO)
Time Latitude Longitude Altitude Speed Heading
2026-05-06 08:06 9.00429 7.26918 1137 ft 0 kts 57°
2026-05-06 08:23 9.00427 7.26915 1137 ft 2 kts 57°
2026-05-06 08:23 9.00418 7.26903 1136 ft 2 kts 43°
2026-05-06 08:24 9.00406 7.26894 1135 ft 2 kts 32°
2026-05-06 08:24 9.00392 7.26887 1134 ft 2 kts 21°
2026-05-06 08:24 9.00378 7.26882 1133 ft 2 kts
2026-05-06 08:24 9.00363 7.26881 1132 ft 2 kts 359°
2026-05-06 08:25 9.00348 7.26882 1132 ft 2 kts 348°
2026-05-06 08:25 9.00333 7.26886 1132 ft 2 kts 337°
2026-05-06 08:25 9.00320 7.26893 1132 ft 2 kts 327°
2026-05-06 08:25 9.00311 7.26899 1132 ft 0 kts 326°
2026-05-06 08:26 9.00310 7.26899 1132 ft 0 kts 326°
2026-05-06 08:27 9.00311 7.26898 1132 ft 0 kts 326°
2026-05-06 08:27 9.00320 7.26892 1132 ft 2 kts 326°
2026-05-06 08:28 9.00421 7.26822 1132 ft 19 kts 324°
2026-05-06 08:28 9.00429 7.26816 1132 ft 15 kts 324°
2026-05-06 08:28 9.00466 7.26769 1131 ft 17 kts 276°
2026-05-06 08:29 9.00450 7.26658 1128 ft 15 kts 288°
2026-05-06 08:29 9.00522 7.26601 1130 ft 11 kts 322°
2026-05-06 08:29 9.00566 7.26552 1129 ft 6 kts 306°
2026-05-06 08:29 9.00628 7.26506 1128 ft 14 kts 356°
2026-05-06 08:30 9.00678 7.26533 1129 ft 14 kts 44°
2026-05-06 08:30 9.00688 7.26541 1129 ft 18 kts 39°
2026-05-06 08:30 9.00788 7.26599 1128 ft 25 kts 38°
2026-05-06 08:30 9.00915 7.26689 1129 ft 10 kts 33°
2026-05-06 08:31 9.00919 7.26692 1129 ft 0 kts 33°
2026-05-06 08:31 9.00944 7.26709 1130 ft 11 kts 33°
2026-05-06 08:31 9.01021 7.26757 1133 ft 36 kts 31°
2026-05-06 08:31 9.01232 7.26921 1136 ft 29 kts 42°
2026-05-06 08:32 9.01392 7.27040 1133 ft 27 kts 31°
2026-05-06 08:32 9.01550 7.27138 1132 ft 25 kts 34°
2026-05-06 08:32 9.01694 7.27238 1133 ft 23 kts 34°
2026-05-06 08:32 9.01823 7.27323 1134 ft 16 kts 37°
2026-05-06 08:33 9.01862 7.27353 1134 ft 0 kts 37°
2026-05-06 08:33 9.01865 7.27355 1134 ft 1 kts 35°
2026-05-06 08:33 9.01893 7.27366 1134 ft 6 kts
2026-05-06 08:33 9.01947 7.27347 1132 ft 9 kts 320°
2026-05-06 08:34 9.01988 7.27285 1131 ft 11 kts 301°
2026-05-06 08:34 9.01948 7.27215 1131 ft 11 kts 219°
2026-05-06 08:34 9.01712 7.27046 1127 ft 73 kts 214°
2026-05-06 08:35 9.01130 7.26637 1130 ft 127 kts 215°
2026-05-06 08:35 9.00252 7.26013 1102 ft 176 kts 215°
2026-05-06 08:35 8.99199 7.25259 1428 ft 189 kts 214°
2026-05-06 08:35 8.98118 7.24506 1985 ft 191 kts 212°
2026-05-06 08:36 8.96989 7.23796 2565 ft 192 kts 208°
2026-05-06 08:36 8.95715 7.23421 3003 ft 194 kts 179°
2026-05-06 08:36 8.94299 7.23447 3185 ft 209 kts 179°
2026-05-06 08:36 8.92809 7.23466 3425 ft 221 kts 180°
2026-05-06 08:37 8.91213 7.23439 3668 ft 234 kts 182°
2026-05-06 08:37 8.89521 7.23362 3913 ft 248 kts 182°
2026-05-06 08:37 8.87740 7.23276 4168 ft 261 kts 182°
2026-05-06 08:37 8.85892 7.23191 4564 ft 267 kts 182°
2026-05-06 08:38 8.84010 7.23108 4935 ft 273 kts 181°
2026-05-06 08:38 8.82063 7.23025 5246 ft 283 kts 181°
2026-05-06 08:38 8.80089 7.22942 5710 ft 286 kts 181°
2026-05-06 08:38 8.78197 7.22863 6133 ft 289 kts 181°
2026-05-06 08:39 8.76146 7.22777 6541 ft 293 kts 180°
2026-05-06 08:39 8.74073 7.22689 6986 ft 296 kts 180°
2026-05-06 08:39 8.72007 7.22602 7439 ft 298 kts 179°
2026-05-06 08:39 8.69919 7.22514 7871 ft 301 kts 179°
2026-05-06 08:40 8.67923 7.22432 8269 ft 303 kts 178°
2026-05-06 08:40 8.65681 7.22341 8739 ft 306 kts 178°
2026-05-06 08:40 8.63551 7.22254 9169 ft 308 kts 178°
2026-05-06 08:40 8.61394 7.22166 9583 ft 311 kts 177°
2026-05-06 08:41 8.59211 7.22078 10040 ft 312 kts 177°
2026-05-06 08:41 8.57005 7.21990 10347 ft 320 kts 177°
2026-05-06 08:41 8.54722 7.21900 10555 ft 332 kts 178°
2026-05-06 08:41 8.52374 7.21807 10878 ft 339 kts 178°
2026-05-06 08:42 8.50016 7.21710 11360 ft 341 kts 178°
2026-05-06 08:42 8.47642 7.21610 11898 ft 341 kts 178°
2026-05-06 08:42 8.45254 7.21510 12402 ft 342 kts 178°
2026-05-06 08:42 8.42868 7.21410 12929 ft 343 kts 178°
2026-05-06 08:43 8.40414 7.21309 13456 ft 344 kts 178°
2026-05-06 08:43 8.37993 7.21213 13956 ft 345 kts 178°
2026-05-06 08:43 8.35583 7.21115 14434 ft 347 kts 179°
2026-05-06 08:43 8.33172 7.21015 14901 ft 348 kts 179°
2026-05-06 08:44 8.30728 7.20915 15367 ft 350 kts 179°
2026-05-06 08:44 8.28277 7.20813 15814 ft 352 kts 179°
2026-05-06 08:44 8.25821 7.20712 16258 ft 353 kts 180°
2026-05-06 08:44 8.23356 7.20610 16699 ft 354 kts 180°
2026-05-06 08:45 8.20879 7.20509 17145 ft 355 kts 180°
2026-05-06 08:45 8.18375 7.20386 17577 ft 357 kts 181°
2026-05-06 08:45 8.15886 7.20242 17967 ft 359 kts 181°
2026-05-06 08:45 8.13380 7.20092 18352 ft 362 kts 181°
2026-05-06 08:46 8.10858 7.19944 18735 ft 364 kts 181°
2026-05-06 08:46 8.08303 7.19796 19108 ft 367 kts 181°
2026-05-06 08:46 8.05729 7.19646 19464 ft 369 kts 181°
2026-05-06 08:46 8.03137 7.19497 19826 ft 372 kts 181°
2026-05-06 08:47 8.00533 7.19348 20167 ft 375 kts 181°
2026-05-06 08:47 7.97904 7.19198 20492 ft 377 kts 181°
2026-05-06 08:47 7.95302 7.19048 20811 ft 380 kts 181°
2026-05-06 08:47 7.92647 7.18897 21132 ft 382 kts 181°
2026-05-06 08:48 7.89970 7.18742 21448 ft 385 kts 181°
2026-05-06 08:48 7.87285 7.18587 21762 ft 387 kts 182°
2026-05-06 08:48 7.84584 7.18346 22074 ft 389 kts 184°
2026-05-06 08:48 7.81869 7.18075 22388 ft 391 kts 184°
2026-05-06 08:49 7.79117 7.17798 22691 ft 393 kts 184°
2026-05-06 08:49 7.76414 7.17525 22976 ft 395 kts 184°
2026-05-06 08:49 7.73628 7.17245 23250 ft 398 kts 184°
2026-05-06 08:49 7.70864 7.16966 23508 ft 401 kts 184°
2026-05-06 08:50 7.68068 7.16684 23774 ft 404 kts 184°
2026-05-06 08:50 7.65229 7.16398 24051 ft 406 kts 185°
2026-05-06 08:50 7.62394 7.16113 24311 ft 409 kts 185°
2026-05-06 08:50 7.59546 7.15837 24580 ft 411 kts 184°
2026-05-06 08:51 7.56691 7.15580 24850 ft 413 kts 184°
2026-05-06 08:51 7.53775 7.15323 25121 ft 415 kts 184°
2026-05-06 08:51 7.50902 7.15069 25391 ft 417 kts 184°
2026-05-06 08:51 7.47975 7.14810 25655 ft 419 kts 184°
2026-05-06 08:52 7.45061 7.14551 25906 ft 421 kts 184°
2026-05-06 08:52 7.42135 7.14290 26149 ft 423 kts 184°
2026-05-06 08:52 7.39140 7.14022 26391 ft 426 kts 184°
2026-05-06 08:52 7.36148 7.13755 26641 ft 427 kts 184°
2026-05-06 08:53 7.33168 7.13487 26888 ft 429 kts 184°
2026-05-06 08:53 7.30176 7.13219 27111 ft 432 kts 184°
2026-05-06 08:53 7.27167 7.12949 27319 ft 434 kts 184°
2026-05-06 08:53 7.24104 7.12676 27540 ft 436 kts 184°
2026-05-06 08:54 7.21058 7.12403 27785 ft 437 kts 184°
2026-05-06 08:54 7.18033 7.12133 27990 ft 440 kts 184°
2026-05-06 08:54 7.14967 7.11858 28187 ft 442 kts 184°
2026-05-06 08:54 7.11872 7.11582 28415 ft 443 kts 184°
2026-05-06 08:55 7.08789 7.11307 28647 ft 445 kts 184°
2026-05-06 08:55 7.05690 7.11029 28863 ft 446 kts 184°
2026-05-06 08:55 7.02586 7.10751 29071 ft 448 kts 184°
2026-05-06 08:55 6.99456 7.10471 29279 ft 450 kts 184°
2026-05-06 08:56 6.96332 7.10155 29497 ft 452 kts 187°
2026-05-06 08:56 6.93171 7.09672 29735 ft 454 kts 188°
2026-05-06 08:56 6.90035 7.09141 29933 ft 456 kts 189°
2026-05-06 08:57 6.83754 7.08288 29953 ft 455 kts 183°
2026-05-06 08:57 6.77412 7.07897 29957 ft 455 kts 182°
2026-05-06 08:58 6.71061 7.07532 29957 ft 455 kts 182°
2026-05-06 08:58 6.64694 7.07156 29948 ft 454 kts 182°
2026-05-06 08:59 6.58382 7.06778 29941 ft 454 kts 182°
2026-05-06 08:59 6.52035 7.06343 29940 ft 453 kts 184°
2026-05-06 09:00 6.45744 7.05753 29941 ft 452 kts 184°
2026-05-06 09:00 6.39469 7.05164 29943 ft 453 kts 184°
2026-05-06 09:01 6.33182 7.04588 29942 ft 453 kts 184°
2026-05-06 09:01 6.26875 7.04013 29945 ft 452 kts 184°
2026-05-06 09:02 6.20604 7.03443 29949 ft 451 kts 184°
2026-05-06 09:02 6.14311 7.02870 29955 ft 450 kts 184°
2026-05-06 09:03 6.08081 7.02319 29966 ft 449 kts 184°
2026-05-06 09:03 6.01854 7.01809 29581 ft 447 kts 184°
2026-05-06 09:03 5.98718 7.01553 28689 ft 452 kts 184°
2026-05-06 09:04 5.95553 7.01292 27677 ft 458 kts 184°
2026-05-06 09:04 5.92408 7.01028 26954 ft 455 kts 184°
2026-05-06 09:04 5.89236 7.00763 26400 ft 448 kts 183°
2026-05-06 09:04 5.86139 7.00506 25841 ft 442 kts 183°
2026-05-06 09:05 5.83072 7.00256 25265 ft 437 kts 181°
2026-05-06 09:05 5.80055 7.00386 24674 ft 428 kts 167°
2026-05-06 09:05 5.77214 7.01098 24162 ft 420 kts 161°
2026-05-06 09:05 5.74410 7.01924 23596 ft 415 kts 161°
2026-05-06 09:06 5.71631 7.02751 23046 ft 411 kts 161°
2026-05-06 09:06 5.68911 7.03554 22502 ft 406 kts 161°
2026-05-06 09:06 5.66200 7.04347 22043 ft 399 kts 161°
2026-05-06 09:06 5.63536 7.05121 21703 ft 390 kts 161°
2026-05-06 09:07 5.60952 7.05868 21380 ft 381 kts 161°
2026-05-06 09:07 5.58429 7.06597 21030 ft 374 kts 161°
2026-05-06 09:07 5.55956 7.07311 20650 ft 368 kts 161°
2026-05-06 09:07 5.53478 7.08026 20227 ft 364 kts 161°
2026-05-06 09:08 5.51053 7.08723 19783 ft 360 kts 162°
2026-05-06 09:08 5.48586 7.09088 19305 ft 362 kts 178°
2026-05-06 09:08 5.46051 7.08959 18911 ft 358 kts 181°
2026-05-06 09:08 5.43590 7.08791 18476 ft 355 kts 181°
2026-05-06 09:09 5.41113 7.08627 18040 ft 351 kts 180°
2026-05-06 09:09 5.38698 7.08473 17617 ft 348 kts 180°
2026-05-06 09:09 5.36292 7.08326 17200 ft 344 kts 180°
2026-05-06 09:09 5.33880 7.08181 16748 ft 341 kts 180°
2026-05-06 09:10 5.31518 7.08040 16291 ft 340 kts 180°
2026-05-06 09:10 5.29178 7.07901 15840 ft 338 kts 179°
2026-05-06 09:10 5.26813 7.07761 15386 ft 336 kts 179°
2026-05-06 09:10 5.24489 7.07357 14891 ft 343 kts 200°
2026-05-06 09:11 5.22365 7.06246 14479 ft 343 kts 206°
2026-05-06 09:11 5.20300 7.05079 14032 ft 343 kts 206°
2026-05-06 09:11 5.18212 7.03920 13567 ft 343 kts 205°
2026-05-06 09:11 5.16110 7.02777 13119 ft 342 kts 205°
2026-05-06 09:12 5.13994 7.01633 12676 ft 341 kts 205°
2026-05-06 09:12 5.11911 7.00514 12275 ft 339 kts 205°
2026-05-06 09:12 5.09848 6.99410 11889 ft 336 kts 205°
2026-05-06 09:12 5.07779 6.98304 11500 ft 334 kts 205°
2026-05-06 09:13 5.05665 6.97368 11085 ft 327 kts 188°
2026-05-06 09:13 5.03447 6.97259 10677 ft 313 kts 163°
2026-05-06 09:13 5.01472 6.98024 10255 ft 299 kts 139°
2026-05-06 09:13 5.00049 6.99480 9600 ft 293 kts 114°
2026-05-06 09:14 4.99427 7.01382 8962 ft 288 kts 89°
2026-05-06 09:14 4.99747 7.03333 8534 ft 281 kts 64°
2026-05-06 09:14 5.00867 7.04899 8138 ft 277 kts 45°
2026-05-06 09:14 5.02286 7.06196 7739 ft 277 kts 41°
2026-05-06 09:15 5.03766 7.07441 7332 ft 276 kts 40°
2026-05-06 09:15 5.05246 7.08664 6929 ft 276 kts 40°
2026-05-06 09:15 5.06735 7.09893 6542 ft 279 kts 40°
2026-05-06 09:15 5.08255 7.11148 6242 ft 280 kts 40°
2026-05-06 09:16 5.09765 7.12398 5998 ft 278 kts 40°
2026-05-06 09:16 5.11256 7.13632 5756 ft 277 kts 40°
2026-05-06 09:16 5.12745 7.14868 5519 ft 276 kts 40°
2026-05-06 09:16 5.14234 7.16107 5277 ft 275 kts 40°
2026-05-06 09:17 5.15703 7.17314 5039 ft 274 kts 36°
2026-05-06 09:17 5.17427 7.18094 4781 ft 273 kts
2026-05-06 09:17 5.19323 7.17977 4541 ft 271 kts 340°
2026-05-06 09:17 5.20919 7.17000 4296 ft 268 kts 311°
2026-05-06 09:18 5.21843 7.15424 4059 ft 265 kts 283°
2026-05-06 09:18 5.21903 7.13612 3821 ft 261 kts 254°
2026-05-06 09:18 5.21228 7.11933 3594 ft 258 kts 242°
2026-05-06 09:18 5.20367 7.10337 3356 ft 258 kts 240°
2026-05-06 09:19 5.19477 7.08771 3119 ft 258 kts 239°
2026-05-06 09:19 5.18587 7.07213 2884 ft 258 kts 239°
2026-05-06 09:19 5.17699 7.05661 2647 ft 258 kts 239°
2026-05-06 09:19 5.16811 7.04109 2481 ft 254 kts 239°
2026-05-06 09:20 5.15942 7.02592 2472 ft 244 kts 239°
2026-05-06 09:20 5.15098 7.01117 2475 ft 243 kts 239°
2026-05-06 09:20 5.14254 6.99648 2478 ft 243 kts 239°
2026-05-06 09:20 5.13387 6.98197 2437 ft 244 kts 229°
2026-05-06 09:21 5.11915 6.97275 1664 ft 265 kts 189°
2026-05-06 09:21 5.10059 6.97478 792 ft 275 kts 161°
2026-05-06 09:21 5.08308 6.98048 653 ft 256 kts 166°
2026-05-06 09:21 5.06610 6.98339 679 ft 233 kts 175°
2026-05-06 09:22 5.05062 6.98442 690 ft 214 kts 179°
2026-05-06 09:22 5.03635 6.98539 730 ft 193 kts 177°